Fort Mitchell, AL

1:26 PM CST on December 04, 2016 (GMT -0600)
Lawson Army Air Field

Weather History for KLSF - September, 2013

Change the Weather History Date:

Tuesday, September 24, 2013

  Actual Average Record
Temperature  
Mean Temperature 71 °F -  
Max Temperature 74 °F 80 °F 95 °F (2010)
Min Temperature 68 °F 60 °F 46 °F (1999)
Cooling Degree Days 6    
Growing Degree Days 21 (Base 50)    
Moisture  
Dew Point 68 °F    
Average Humidity 95    
Maximum Humidity 100    
Minimum Humidity 83    
Precipitation  
Precipitation 0.25 in - - ()
Sea Level Pressure  
Sea Level Pressure 29.94 in    
Wind  
Wind Speed 3 mph (ENE)    
Max Wind Speed 15 mph    
Max Gust Speed -    
Visibility 9 miles    
Events Rain    
Averages and records for this station are not official NWS values.
T = Trace of Precipitation, MM = Missing Value Source: NWS Daily Summary

Daily Weather History Graph

Daily Weather History Graph

Search for Another Location

Airport or City:

Trip Planner

Search our weather history database for the weather conditions in past years. The results will help you decide how hot, cold, wet, or windy it might be!

Date:

Astronomy

Sep. 24, 2013 Rise Set
Actual Time 7:29 AM EDT 7:33 PM EDT
Civil Twilight 7:05 AM EDT 7:58 PM EDT
Nautical Twilight 6:36 AM EDT 8:26 PM EDT
Astronomical Twilight 6:07 AM EDT 8:55 PM EDT
Moon 11:07 PM EDT (9/24) 12:26 PM EDT (9/24)
Length of Visible Light 12h 52m
Length of Day
12h 04m
Waning Gibbous, 73% of the Moon is Illuminated
Sep 24
Waning Gibbous
Sep 26
Last Quarter
Oct 4
New
Oct 11
First Quarter
Oct 18
Full

Hourly Weather History & Observations

Time (EDT) Temp. Dew Point Humidity Pressure Visibility Wind Dir Wind Speed Gust Speed Precip Events Conditions
12:58 AM 68.7 °F 67.8 °F 97% 29.99 in 10.0 mi Calm Calm - N/A   Overcast
1:27 AM 68.0 °F 68.0 °F 100% 29.97 in 10.0 mi Variable 1.2 mph - N/A   Light Drizzle
1:32 AM 68.0 °F 68.0 °F 100% 29.97 in 6.0 mi ENE 3.5 mph - N/A Rain Light Rain
1:52 AM 68.0 °F 68.0 °F 100% 29.97 in 10.0 mi ENE 3.5 mph - N/A   Light Drizzle
1:53 AM 68.0 °F 68.0 °F 100% 29.96 in 10.0 mi Variable 3.5 mph - N/A   Overcast
1:58 AM 68.4 °F 68.0 °F 99% 29.97 in 10.0 mi Variable 3.5 mph - 0.00 in   Overcast
2:58 AM 68.5 °F 68.2 °F 99% 29.97 in 10.0 mi East 3.5 mph - 0.01 in   Overcast
3:28 AM 68.0 °F 68.0 °F 100% 29.96 in 10.0 mi East 3.5 mph - N/A   Overcast
3:48 AM 68.0 °F 68.0 °F 100% 29.96 in 10.0 mi NE 2.3 mph - N/A   Overcast
3:58 AM 68.5 °F 67.8 °F 98% 29.97 in 10.0 mi ENE 2.3 mph - N/A   Overcast
4:48 AM 68.0 °F 68.0 °F 100% 29.95 in 10.0 mi NE 2.3 mph - N/A   Overcast
4:53 AM 68.0 °F 68.0 °F 100% 29.95 in 10.0 mi NE 2.3 mph - N/A   Overcast
4:58 AM 68.5 °F 68.0 °F 98% 29.97 in 10.0 mi ENE 2.3 mph - N/A   Overcast
5:03 AM 68.0 °F 68.0 °F 100% 29.96 in 10.0 mi ENE 2.3 mph - N/A   Overcast
5:58 AM 68.4 °F 67.8 °F 98% 29.97 in 10.0 mi North 2.3 mph - N/A   Overcast
6:38 AM 68.0 °F 68.0 °F 100% 29.97 in 10.0 mi North 2.3 mph - N/A   Overcast
6:58 AM 68.2 °F 68.0 °F 99% 29.98 in 10.0 mi NNE 2.3 mph - N/A   Overcast
7:50 AM 68.0 °F 68.0 °F 100% 29.98 in 10.0 mi NE 2.3 mph - N/A Rain Light Rain
7:58 AM 68.4 °F 67.8 °F 98% 29.99 in 8.0 mi Calm Calm - 0.00 in Rain Light Rain
8:21 AM 68.0 °F 68.0 °F 100% 29.98 in 10.0 mi ENE 2.3 mph - N/A   Overcast
8:31 AM 68.0 °F 68.0 °F 100% 29.98 in 10.0 mi ENE 1.2 mph - N/A   Overcast
8:46 AM 68.0 °F 68.0 °F 100% 29.97 in 10.0 mi NE 2.3 mph - N/A   Overcast
8:58 AM 68.7 °F 68.2 °F 98% 29.99 in 10.0 mi Variable 2.3 mph - 0.00 in   Overcast
9:13 AM 69.8 °F 68.0 °F 94% 29.98 in 10.0 mi NE 3.5 mph - N/A   Overcast
9:33 AM 69.8 °F 68.0 °F 94% 29.98 in 10.0 mi East 3.5 mph - N/A   Overcast
9:43 AM 69.8 °F 68.0 °F 94% 29.97 in 10.0 mi East 5.8 mph - N/A   Overcast
9:56 AM 69.8 °F 68.0 °F 94% 29.97 in 10.0 mi Variable 3.5 mph - N/A   Light Drizzle
9:58 AM 69.8 °F 68.0 °F 94% 29.99 in 10.0 mi Variable 3.5 mph - N/A   Light Drizzle
10:28 AM 69.8 °F 69.8 °F 100% 29.97 in 10.0 mi East 6.9 mph - N/A   Overcast
10:58 AM 71.6 °F 69.8 °F 94% 29.97 in 10.0 mi ENE 5.8 mph - N/A   Overcast
11:35 AM 71.6 °F 68.0 °F 88% 29.97 in 10.0 mi ENE 5.8 mph - N/A   Overcast
11:58 AM 72.7 °F 69.6 °F 90% 29.98 in 10.0 mi ENE 3.5 mph - N/A   Overcast
12:18 PM 73.4 °F 69.8 °F 88% 29.96 in 10.0 mi Variable 4.6 mph - N/A   Overcast
12:28 PM 73.4 °F 69.8 °F 88% 29.96 in 10.0 mi NE 8.1 mph - N/A   Overcast
12:58 PM 74.3 °F 69.6 °F 85% 29.97 in 10.0 mi East 8.1 mph - N/A   Overcast
1:58 PM 73.8 °F 68.9 °F 85% 29.95 in 10.0 mi East 6.9 mph - N/A   Overcast
2:58 PM 73.9 °F 68.7 °F 84% 29.94 in 10.0 mi East 6.9 mph - N/A   Overcast
3:58 PM 73.6 °F 68.2 °F 83% 29.92 in 10.0 mi East 6.9 mph - N/A   Overcast
4:58 PM 73.9 °F 68.4 °F 83% 29.91 in 10.0 mi East 5.8 mph - N/A   Overcast
5:08 PM 73.4 °F 68.0 °F 83% 29.91 in 10.0 mi ENE 4.6 mph - N/A   Overcast
5:58 PM 73.0 °F 68.4 °F 85% 29.91 in 10.0 mi NE 4.6 mph - N/A   Overcast
6:38 PM 73.4 °F 68.0 °F 83% 29.89 in 10.0 mi ENE 4.6 mph - N/A   Overcast
6:58 PM 72.7 °F 68.4 °F 86% 29.90 in 10.0 mi ENE 4.6 mph - N/A   Overcast
7:58 PM 72.1 °F 68.4 °F 88% 29.90 in 10.0 mi ENE 2.3 mph - N/A   Overcast
8:58 PM 72.0 °F 68.4 °F 88% 29.91 in 10.0 mi NNE 2.3 mph - N/A   Overcast
9:34 PM 71.6 °F 68.0 °F 88% 29.90 in 10.0 mi Calm Calm - N/A   Light Drizzle
9:49 PM 71.6 °F 69.8 °F 94% 29.90 in 7.0 mi WNW 1.2 mph - N/A Rain Light Rain
9:58 PM 70.5 °F 70.0 °F 98% 29.91 in 7.0 mi West 2.3 mph - 0.01 in Rain Light Rain
10:13 PM 69.8 °F 69.8 °F 100% 29.90 in 5.0 mi WNW 2.3 mph - N/A Rain Rain
10:33 PM 69.8 °F 69.8 °F 100% 29.90 in 2.0 mi WNW 4.6 mph - N/A Rain Heavy Rain
10:48 PM 69.8 °F 69.8 °F 100% 29.87 in 3.0 mi ESE 6.9 mph - N/A Rain Rain
10:58 PM 69.3 °F 69.1 °F 99% 29.83 in 6.0 mi SE 15.0 mph - 0.20 in Rain Light Rain
11:03 PM 69.8 °F 68.0 °F 94% 29.82 in 7.0 mi SE 13.8 mph - N/A Rain Light Rain
11:23 PM 69.8 °F 68.0 °F 94% 29.80 in 10.0 mi SSE 11.5 mph - N/A Rain Light Rain
11:28 PM 69.8 °F 68.0 °F 94% 29.80 in 10.0 mi SE 12.7 mph - N/A   Light Drizzle
11:29 PM 69.8 °F 68.0 °F 94% 29.79 in 10.0 mi SE 15.0 mph - N/A   Scattered Clouds
11:58 PM 69.3 °F 68.4 °F 97% 29.85 in 10.0 mi Variable 2.3 mph - 0.03 in   Scattered Clouds